Theta_e
308 308 308 308 308 308 308 308 308 308 308 308 308 308 308 307 307 308 307 308 307 307 307 307 308 307 308 307 308 310 312 313 313 313 314 315 314 313 314 314 315 314 315 316 312 313 314 313 313 313 316 316 316 316 314 321 324 324 330 325 322 328 327 328 328 324 320 323 327 321 316 315 317 319 314 311 314 316 316 317 319 315 313 314 311 309 310 311
308 309 308 308 308 308 308 308 308 308 308 308 308 308 308 308 308 308 308 308 307 307 308 307 308 307 308 308 308 310 312 314 314 315 315 315 315 315 315 314 315 315 315 315 313 313 315 316 312 314 320 317 316 317 317 318 320 329 330 321 325 330 327 326 327 326 320 319 322 320 317 314 316 317 313 314 318 318 316 318 318 317 317 314 309 307 310 310
309 309 309 309 309 309 309 308 308 308 309 309 309 309 309 309 309 309 309 308 308 308 308 308 308 308 308 308 309 311 313 314 315 317 317 316 316 316 317 315 315 316 315 315 314 312 315 316 311 317 322 317 319 320 320 319 319 329 326 324 333 330 324 324 324 323 320 317 318 320 317 314 316 315 313 315 317 318 317 317 317 318 319 317 316 309 307 309
310 310 310 310 310 309 309 309 309 309 309 309 309 309 309 309 309 309 310 309 309 309 309 309 308 308 308 308 310 312 313 312 312 316 317 316 316 316 317 316 315 316 316 314 314 314 314 313 311 320 320 318 322 320 322 323 321 324 322 328 336 325 320 324 323 321 319 315 315 318 316 315 316 313 313 315 316 317 316 316 315 316 317 316 322 315 305 306
311 311 311 311 310 310 310 309 309 309 309 309 309 309 309 309 309 310 310 310 310 310 309 309 309 309 308 309 311 311 313 314 313 316 317 316 316 316 317 316 315 316 315 313 314 314 313 312 313 320 320 318 321 320 326 326 320 322 322 326 330 321 318 322 323 322 319 315 315 317 316 316 314 312 315 315 315 316 316 317 317 316 317 315 317 316 306 306
311 311 311 310 310 310 309 309 309 309 309 309 308 308 309 309 309 310 310 311 310 310 310 310 310 309 309 310 312 312 313 315 314 316 317 316 316 317 317 316 316 316 315 314 313 313 314 313 314 319 319 318 320 320 323 321 317 321 323 323 325 321 319 320 321 322 318 315 317 317 315 315 314 314 316 315 315 315 315 316 318 316 313 310 311 316 317 316
311 310 310 310 309 309 309 308 308 308 308 308 308 308 308 308 309 309 309 310 310 310 311 311 311 310 309 311 314 315 316 315 314 314 315 314 316 317 317 317 316 315 314 313 313 315 316 316 316 319 320 318 319 321 320 318 316 319 322 323 322 320 320 320 318 319 319 317 317 316 314 315 316 316 314 314 315 315 314 313 316 313 306 307 312 320 324 320
311 310 310 309 309 309 308 308 308 308 308 308 308 308 308 308 309 309 308 309 309 309 309 310 311 310 310 312 314 318 318 316 314 314 314 315 317 317 317 317 316 315 313 312 313 315 316 316 316 316 318 319 318 319 317 315 317 320 322 323 321 320 322 321 317 318 320 318 315 313 315 317 315 314 312 312 313 313 313 312 313 312 309 310 313 317 319 317
311 311 310 310 310 309 309 309 309 309 309 309 310 310 310 310 310 309 309 309 309 308 308 308 309 309 311 312 312 315 316 315 313 314 315 316 318 316 316 317 316 314 312 312 313 312 313 317 316 315 318 319 316 316 317 315 319 322 320 322 321 319 320 319 316 317 318 318 314 312 316 315 313 313 312 313 314 312 312 313 312 313 314 313 311 312 314 316
312 312 312 311 311 311 311 311 311 311 311 311 311 311 311 311 311 311 310 310 309 309 309 307 307 309 312 312 312 314 314 314 315 315 316 316 316 316 315 316 315 314 311 311 311 310 312 315 314 314 315 317 315 314 317 316 316 320 319 320 319 317 316 314 315 316 314 316 314 313 315 315 312 312 313 316 317 313 313 316 314 313 316 314 311 310 310 312
313 313 313 312 312 312 312 312 312 312 312 312 312 311 311 311 311 311 311 311 311 310 310 308 306 307 311 312 312 314 314 314 316 316 316 315 315 315 315 315 314 313 311 310 310 310 311 311 310 311 313 315 314 313 315 315 313 314 315 316 316 314 314 313 313 314 312 313 314 312 312 314 312 312 313 314 315 312 313 316 314 314 314 313 311 309 309 309
314 314 313 313 313 313 313 313 313 312 312 311 311 311 310 310 310 310 311 311 312 311 311 310 307 306 310 312 313 314 312 313 314 314 314 314 315 314 313 314 313 312 311 309 310 310 310 310 311 313 314 312 313 313 313 314 312 312 313 314 316 314 313 313 313 314 313 313 314 311 311 314 315 315 315 312 312 312 312 315 314 313 312 312 311 309 309 307
315 314 314 313 313 313 313 313 312 311 311 311 310 309 309 310 309 309 310 311 312 311 311 310 308 308 310 313 313 312 312 312 312 313 313 314 313 313 312 312 311 311 311 310 309 310 310 311 312 314 313 312 315 313 310 313 312 312 313 314 314 314 314 313 313 314 312 313 315 312 312 318 318 315 314 312 312 311 312 315 314 313 312 312 311 310 310 307
314 314 314 314 314 313 313 313 313 313 313 312 310 310 310 309 309 309 309 310 310 311 311 310 308 309 311 314 312 310 312 312 312 312 312 313 312 312 312 311 311 310 310 310 310 312 312 310 311 312 311 313 315 311 311 317 318 315 312 314 315 314 317 315 312 312 311 312 314 312 312 315 315 314 313 312 313 313 313 315 314 313 312 312 312 312 311 309
314 314 314 314 314 314 314 314 315 316 315 313 312 311 310 309 309 309 309 309 310 311 311 309 310 310 311 313 310 311 312 312 312 312 312 312 311 312 311 311 311 311 311 311 311 313 312 311 312 314 314 312 311 314 318 321 325 322 313 316 319 316 317 316 312 312 312 312 311 312 314 313 312 313 313 312 313 313 314 316 316 314 313 312 312 311 311 310
315 314 314 314 314 314 315 315 316 317 315 315 314 312 310 310 310 310 311 310 309 310 310 311 311 310 311 312 310 312 312 312 313 313 313 312 312 312 311 311 311 311 312 311 311 311 311 312 312 313 314 312 313 321 324 320 326 325 314 315 320 316 314 314 314 314 313 312 310 311 313 314 313 315 315 313 310 312 314 315 313 312 311 310 310 310 310 310
315 315 314 314 314 314 315 315 317 316 316 317 314 310 310 311 312 312 311 310 311 311 310 312 312 309 310 311 310 311 311 312 313 313 313 312 312 312 311 310 309 309 310 309 311 310 309 310 310 313 316 315 316 320 320 318 320 320 315 315 318 316 313 313 316 316 312 312 312 312 311 311 312 313 314 313 311 311 312 312 311 310 309 309 309 309 309 309
316 315 314 314 314 315 315 316 317 317 317 317 312 309 312 312 312 311 311 312 312 312 311 311 311 311 314 313 310 311 311 311 312 313 313 312 311 311 312 310 307 307 310 310 310 310 310 313 312 317 318 314 314 315 317 317 316 316 316 316 316 315 313 313 314 313 313 311 312 313 311 310 311 310 310 310 311 310 309 310 309 309 309 309 309 309 309 309
316 315 315 315 315 315 315 317 318 317 318 317 312 311 312 314 313 312 312 312 314 314 313 312 312 315 318 314 310 311 312 312 313 312 311 312 310 310 310 309 309 311 312 313 313 311 314 317 315 316 316 313 313 313 314 315 314 314 314 313 314 313 312 313 311 310 312 310 310 311 310 309 309 309 309 309 309 309 309 309 309 309 309 309 309 309 308 309
316 316 316 315 316 316 317 318 319 318 317 315 312 310 313 317 317 315 314 314 315 314 316 315 313 316 316 313 311 312 313 313 312 312 311 311 310 310 310 308 312 314 313 318 317 311 312 316 315 316 315 314 312 311 312 312 312 311 312 312 313 312 311 311 310 310 310 310 310 310 309 309 309 309 309 309 309 309 309 309 310 310 310 310 310 310 309 309
317 316 317 317 317 317 318 319 320 319 317 314 311 310 312 312 311 314 315 314 312 308 314 316 311 313 314 311 311 311 313 313 313 312 311 311 310 312 313 310 312 314 314 319 316 310 311 314 315 315 314 313 314 312 311 311 311 311 313 313 312 312 311 310 311 310 309 309 311 311 310 309 309 309 309 309 309 309 310 310 311 311 310 311 311 310 310 310
318 318 318 318 318 319 319 320 320 319 317 314 310 309 308 307 307 309 308 312 312 305 309 312 308 310 311 310 310 310 313 314 314 313 311 310 311 314 315 312 314 316 314 315 314 312 312 313 313 312 312 314 315 313 310 311 312 313 313 313 313 312 311 311 311 311 310 311 313 313 311 309 310 310 309 310 310 309 310 310 311 311 311 311 311 311 311 311
319 319 320 319 320 320 320 321 320 319 318 314 311 308 307 306 308 307 306 312 315 309 311 313 310 311 310 309 310 310 312 312 313 314 311 310 312 315 314 312 314 316 315 314 313 315 315 315 313 310 310 311 313 313 311 311 311 313 313 313 313 311 312 312 312 315 313 310 312 312 310 310 310 310 309 310 310 310 310 311 311 311 311 311 311 312 312 312
321 321 321 321 320 320 320 321 319 319 318 313 312 310 307 307 307 307 309 314 317 314 313 312 309 311 312 309 308 310 312 311 312 313 311 312 313 313 313 313 314 315 314 313 313 314 315 316 313 310 310 310 312 312 312 312 312 313 313 312 312 312 312 311 312 315 313 313 316 313 311 313 314 314 314 312 309 310 310 310 310 310 311 311 311 312 312 312
323 322 323 322 322 321 321 321 318 319 319 313 312 312 309 307 306 308 311 317 321 317 312 308 308 311 310 308 309 311 311 311 313 312 310 311 313 312 312 312 314 315 313 312 312 312 312 314 313 312 312 312 312 312 313 315 312 313 314 312 312 312 312 312 313 312 314 319 318 313 313 316 317 316 319 318 315 315 312 310 312 311 310 311 311 312 311 312
325 324 324 324 323 322 322 321 318 320 321 314 314 314 310 308 307 308 311 319 326 321 314 311 310 311 309 307 309 311 314 313 309 308 309 310 310 311 313 312 312 313 313 313 312 311 312 312 311 314 315 314 313 312 315 314 311 313 317 317 313 311 312 314 313 312 317 321 315 313 317 317 316 316 319 320 320 320 316 314 315 312 310 311 312 312 311 311
325 325 325 324 324 323 323 322 320 321 323 318 315 314 310 308 306 307 313 324 328 321 315 313 310 310 308 307 308 311 318 316 308 307 309 309 308 309 312 312 311 311 311 313 314 314 314 313 311 312 313 314 314 313 314 312 312 316 318 320 318 315 315 315 313 313 317 318 314 315 318 317 316 316 317 316 315 319 318 316 315 311 310 311 312 312 311 311
325 325 325 324 323 323 322 322 321 321 322 319 316 314 310 308 307 309 321 332 330 319 314 312 309 310 309 306 307 311 312 310 309 309 306 306 308 309 311 313 313 313 311 313 314 313 314 315 315 314 312 315 315 314 316 313 313 317 315 315 317 316 316 315 315 316 315 316 316 315 316 319 319 316 317 314 312 318 318 316 315 312 312 313 313 313 312 311
325 325 325 324 322 322 321 321 321 321 321 318 317 316 309 306 307 313 326 331 326 316 313 311 309 310 311 308 309 312 309 307 309 309 307 307 308 308 311 313 312 312 311 312 313 311 312 314 316 317 315 315 314 316 319 316 314 315 313 314 316 318 318 316 318 318 317 318 318 316 316 318 319 317 319 316 315 320 319 316 314 312 314 315 314 314 313 312
324 324 324 323 321 321 320 320 320 321 320 318 317 314 309 310 312 320 330 329 324 319 313 311 311 310 312 311 312 312 310 310 310 310 311 310 309 309 309 309 311 315 313 311 313 312 310 309 310 315 316 315 315 314 314 314 314 312 313 317 319 320 319 319 321 318 317 319 319 320 317 316 319 319 320 320 319 321 319 317 318 317 319 319 318 317 316 313
322 322 323 322 321 321 320 320 321 321 319 318 317 313 313 319 322 329 333 324 321 324 315 312 314 312 313 313 314 313 311 312 311 310 312 310 311 313 309 308 313 319 318 313 313 313 310 308 311 315 316 315 315 313 310 310 311 311 316 320 319 321 319 319 323 319 318 321 319 319 316 314 318 318 318 322 320 318 318 320 324 323 325 327 326 323 318 312
320 320 321 321 320 320 320 321 321 320 320 317 315 316 321 325 325 329 330 323 325 326 317 315 315 315 316 313 316 316 312 313 311 311 314 314 314 314 313 316 316 319 322 319 318 317 314 313 312 313 314 313 313 315 313 312 311 311 317 317 315 319 319 319 323 320 319 321 316 314 314 314 316 315 316 319 318 319 317 318 322 324 326 328 326 322 318 313
317 318 319 320 320 320 320 320 320 320 319 317 317 320 325 326 326 328 327 326 328 322 315 316 314 315 315 314 319 318 312 314 312 310 313 313 313 315 317 317 316 316 319 318 319 320 320 317 311 309 312 313 313 314 315 316 314 312 315 317 316 319 319 321 326 322 320 322 315 311 314 316 318 318 319 316 314 317 317 316 319 320 321 320 318 318 318 318
314 315 316 317 318 319 320 319 319 319 317 316 320 324 325 325 326 326 327 328 327 322 318 317 315 316 316 316 322 319 315 320 315 310 313 312 313 319 319 314 312 313 314 313 316 318 319 320 317 313 316 315 312 311 316 321 317 311 315 318 317 322 324 324 327 324 322 323 315 310 315 321 321 321 322 320 316 320 322 319 315 313 315 316 317 319 320 322
311 312 313 314 316 318 319 319 319 318 316 317 321 325 326 326 325 325 328 328 327 323 319 317 317 320 320 320 322 318 317 323 318 312 315 315 316 322 322 317 313 313 313 314 318 317 315 321 322 316 314 313 312 313 317 320 318 313 316 318 315 320 324 320 322 323 319 320 316 313 319 322 319 316 318 319 316 317 320 316 311 312 317 320 321 321 324 326
309 310 310 312 313 316 318 318 318 317 316 319 322 324 324 325 327 328 326 323 322 321 320 321 320 322 325 325 324 318 313 316 316 314 315 316 317 318 320 321 316 311 312 316 319 318 316 321 320 312 311 313 312 314 313 315 318 315 315 318 315 317 319 316 320 321 316 317 317 317 320 319 318 317 316 319 317 314 315 315 314 316 321 323 324 325 325 324
306 307 309 310 312 314 316 318 318 316 316 319 323 325 324 324 326 328 325 319 318 319 321 323 322 324 327 326 326 323 316 315 315 315 318 319 318 317 318 321 316 311 312 314 318 320 317 318 318 313 314 313 308 310 312 313 315 316 317 317 314 315 317 317 320 321 318 318 318 317 319 318 319 319 318 321 322 317 317 318 317 317 318 320 324 325 321 317
304 306 309 310 311 311 314 317 317 314 315 319 322 324 324 323 322 323 323 319 318 320 321 323 323 325 327 326 327 325 319 319 318 317 321 321 319 319 321 321 315 311 311 310 314 319 316 314 317 317 317 315 308 310 315 312 310 313 316 316 314 317 318 317 319 320 319 319 319 319 319 318 318 318 317 318 319 319 320 321 320 317 316 319 323 323 317 314
303 308 312 311 310 311 313 316 315 314 316 319 321 323 324 323 322 324 324 321 319 321 322 324 324 325 325 324 325 325 322 322 321 319 321 322 319 318 319 318 315 311 309 309 312 318 317 314 316 317 316 315 312 314 319 317 312 310 311 313 314 315 317 317 319 321 321 321 322 322 322 322 320 318 317 317 318 320 322 322 322 320 317 318 321 320 316 313
305 311 314 311 312 313 314 315 314 315 318 320 320 321 322 321 323 325 324 320 319 321 321 323 324 323 323 323 323 324 324 323 322 320 321 323 322 319 318 318 317 316 313 312 313 317 318 316 316 317 315 315 315 317 319 319 316 313 313 315 313 313 316 317 317 319 320 320 322 323 323 323 320 318 317 316 319 322 323 320 321 321 317 316 318 317 312 308
306 311 312 311 313 314 314 315 316 316 319 320 319 319 319 319 320 321 320 318 319 320 320 320 322 322 321 322 322 322 323 323 323 321 321 324 323 321 321 319 319 320 317 315 316 317 318 317 317 317 316 315 317 319 318 318 318 318 316 315 314 313 317 319 318 319 318 318 320 321 321 321 320 320 317 316 318 321 322 319 319 321 318 315 313 309 304 301
307 311 311 311 313 314 315 317 317 317 318 319 319 318 318 318 319 319 318 317 317 319 318 318 320 321 319 320 321 320 321 323 323 321 321 323 321 320 320 319 317 318 318 318 320 318 316 315 316 316 316 316 317 318 318 317 318 317 316 316 317 314 315 318 320 320 318 317 317 318 319 320 320 322 319 317 316 316 318 317 315 316 313 308 305 301 298 297
306 309 309 310 313 314 315 318 318 317 318 318 318 317 317 318 318 318 318 317 317 317 318 318 318 319 319 319 320 319 320 321 320 320 320 321 321 319 320 320 317 316 318 320 320 317 313 314 315 315 316 317 317 317 316 315 316 317 316 317 316 314 314 316 317 317 318 318 317 319 320 319 322 325 321 318 318 317 316 313 309 308 303 299 299 297 296 296
303 305 306 307 311 313 315 318 318 318 318 317 317 317 316 317 317 317 316 317 318 317 318 318 318 318 318 318 318 318 319 320 319 319 319 320 319 316 314 316 316 315 315 316 318 317 315 316 317 317 318 319 319 317 314 313 316 318 318 317 314 314 316 316 314 314 315 316 317 318 319 319 324 327 322 318 319 317 313 306 301 299 298 297 296 295 295 294
301 304 305 304 306 309 313 315 316 316 317 317 317 317 316 316 317 317 316 316 317 317 318 317 315 314 315 315 315 315 315 316 317 317 317 318 318 313 310 311 312 312 311 310 312 315 315 317 317 318 320 319 318 317 316 317 318 317 317 317 315 315 316 315 315 316 316 317 316 317 317 317 321 323 318 315 313 309 306 300 296 296 296 295 294 294 294 293
302 304 304 305 306 307 309 310 312 314 315 315 317 316 316 317 316 317 317 317 316 316 316 316 313 313 313 313 314 314 314 315 314 315 316 317 318 313 307 308 309 307 307 307 308 310 312 314 316 317 317 318 317 316 316 317 317 315 316 316 315 316 315 314 315 317 317 317 316 317 317 316 318 317 312 306 303 301 300 298 295 293 293 294 293 293 293 293
300 301 303 306 307 307 307 308 309 311 312 313 314 315 315 315 314 314 316 316 316 315 315 314 313 315 315 315 315 315 314 315 314 314 314 314 314 311 307 308 307 304 304 305 305 308 310 312 314 315 314 315 315 314 314 314 315 315 315 315 315 315 315 315 315 315 315 317 317 318 316 316 317 313 303 297 297 296 296 296 293 291 292 293 292 293 292 292
299 300 301 303 303 304 306 306 304 306 307 309 310 312 313 312 312 312 312 313 314 314 314 313 312 314 314 313 314 314 314 315 314 313 313 309 308 309 309 308 306 302 301 302 304 309 310 310 311 312 312 312 311 311 311 311 311 312 312 313 313 313 314 314 314 314 314 316 316 315 315 316 314 306 297 294 294 294 294 294 293 291 292 292 292 292 292 292
297 298 299 299 299 300 301 301 300 301 303 305 307 309 310 311 310 310 311 312 313 312 313 313 310 308 307 307 309 312 312 313 313 311 308 306 306 306 308 308 305 301 299 299 302 306 308 308 309 309 308 308 307 308 308 308 309 309 309 311 311 311 312 312 312 313 313 313 314 313 314 313 305 298 296 294 293 293 293 293 293 291 291 292 292 292 292 292
297 297 297 297 297 297 298 299 299 300 301 303 305 306 307 309 309 309 309 310 311 311 310 309 305 302 302 303 304 306 306 307 309 307 304 304 306 304 303 304 304 300 299 299 302 305 306 306 306 305 305 305 306 306 307 307 308 307 307 308 308 308 309 309 309 310 309 310 310 310 314 311 300 294 294 293 292 293 292 293 293 292 291 292 292 292 292 292
295 296 296 296 295 296 298 298 299 300 300 302 304 305 306 306 304 303 304 305 305 305 303 301 300 299 301 301 301 302 302 300 301 301 300 301 303 301 300 301 300 298 299 301 302 303 304 303 303 304 304 304 304 304 304 304 304 304 303 303 303 303 303 303 304 305 305 306 308 309 310 306 297 293 294 293 292 292 292 292 292 292 292 292 292 292 292 292
294 294 296 295 294 294 296 296 297 299 299 300 302 302 302 301 297 298 303 302 299 299 297 296 297 298 299 301 300 299 298 296 297 298 299 299 299 299 298 298 298 298 299 299 300 301 301 302 302 302 302 302 302 302 302 301 301 300 300 301 301 300 300 301 302 302 302 303 305 306 303 297 294 294 294 293 292 292 291 291 292 292 292 292 293 292 292 292
Wind_Speed
8 9 9 9 9 9 10 10 10 10 10 10 10 10 10 10 10 10 10 10 11 11 11 11 12 12 12 11 9 9 9 9 8 6 7 8 8 8 10 8 5 8 12 9 8 8 6 3 4 4 4 3 3 1 1 2 2 3 3 2 2 3 4 6 7 7 4 4 6 4 1 1 8 5 2 1 1 3 4 4 6 6 7 9 7 5 3 6
8 8 8 9 9 9 9 9 9 9 9 9 9 9 10 10 10 10 10 11 11 11 12 12 13 13 13 13 11 11 12 10 8 7 7 5 5 8 11 10 7 8 12 10 9 10 7 2 4 5 4 2 2 2 1 1 2 3 3 2 4 6 6 6 8 6 4 4 6 6 3 3 7 4 1 3 6 5 6 8 6 7 11 12 9 6 6 12
8 8 8 8 9 9 9 9 9 9 9 9 9 9 9 9 9 10 10 10 11 11 12 12 13 14 14 13 11 12 13 9 5 5 3 2 5 6 9 11 8 8 12 9 8 10 5 5 9 7 4 1 1 2 2 0 1 2 4 2 6 7 5 5 7 8 8 4 5 8 4 2 6 3 0 2 7 6 7 10 7 8 12 13 8 7 10 15
8 9 9 9 9 9 9 9 9 9 9 9 9 9 9 9 9 9 10 10 11 11 11 12 12 13 13 12 10 11 11 6 2 3 3 3 8 6 5 10 9 9 12 7 5 7 3 7 9 5 4 0 3 3 0 2 2 2 4 5 7 4 4 7 9 9 8 3 4 6 5 6 6 2 3 3 5 9 9 11 11 13 14 13 8 8 12 14
10 10 10 10 10 10 10 10 10 9 9 9 9 9 9 9 9 9 10 10 10 10 11 11 11 12 12 10 8 10 9 5 2 3 1 6 9 6 2 9 10 10 12 8 5 7 6 8 7 5 4 1 2 2 2 4 3 2 4 7 6 5 4 8 7 7 5 3 4 4 6 8 4 1 5 6 5 10 10 8 12 14 13 12 9 7 9 10
11 11 10 11 11 11 11 11 11 10 10 10 10 10 10 10 10 10 10 10 10 10 11 11 11 11 10 8 6 6 4 1 5 3 6 9 7 5 2 9 11 11 13 9 7 9 7 6 4 3 2 0 3 3 5 3 3 3 5 5 7 6 6 6 3 4 4 3 4 4 5 5 6 8 6 10 11 17 15 9 10 12 11 10 6 6 8 11
11 11 11 11 11 11 12 11 11 11 11 11 11 11 11 11 11 11 10 11 10 11 11 11 11 11 9 6 4 4 4 5 10 7 10 9 6 3 3 8 11 12 13 10 9 8 5 5 3 4 4 1 4 5 4 1 2 3 5 5 6 6 9 8 4 3 3 6 8 4 5 8 12 9 2 8 13 19 18 10 9 10 9 8 6 8 10 12
11 11 10 11 11 11 11 12 11 11 11 11 11 11 12 12 12 12 12 12 11 11 12 11 12 10 10 4 1 3 1 9 15 12 10 8 5 3 4 8 12 13 13 12 10 8 5 6 5 4 2 3 4 4 3 1 1 5 7 6 3 4 8 9 6 6 7 8 7 3 8 16 15 6 6 10 14 19 19 12 9 10 10 8 10 11 11 11
11 11 11 11 10 11 11 11 11 11 12 11 12 12 13 13 13 13 13 13 12 12 12 12 12 10 8 2 3 2 5 11 13 9 8 7 6 5 6 8 12 15 13 12 11 10 6 5 6 5 4 4 5 4 3 2 4 7 8 5 3 5 8 7 7 7 8 6 4 4 12 18 9 4 11 13 16 19 14 12 8 7 11 10 11 12 11 12
10 11 11 11 11 11 11 12 12 12 13 13 13 13 14 14 14 15 14 15 14 13 12 12 11 9 6 1 2 4 7 8 8 8 9 9 8 7 9 9 13 16 13 9 11 12 8 7 7 5 4 2 4 3 3 4 4 5 5 6 7 8 8 5 6 8 5 5 7 8 14 17 5 1 8 9 10 8 6 10 7 4 10 10 10 10 10 11
10 11 11 11 11 11 12 12 13 13 14 14 15 15 15 16 16 16 16 16 15 14 13 12 11 8 5 3 3 7 7 6 8 10 11 11 10 9 9 10 13 17 15 9 12 16 10 8 7 5 2 2 3 2 3 5 2 2 1 7 9 6 9 7 7 8 4 4 9 12 11 13 4 2 13 16 6 1 5 12 10 7 10 10 9 9 8 10
10 11 11 11 10 11 12 13 13 14 15 16 16 16 16 17 17 17 17 17 16 15 13 12 10 7 3 2 7 14 14 12 12 12 13 12 11 9 9 11 13 15 15 9 10 16 13 8 9 5 4 3 1 1 4 4 1 1 3 5 11 7 10 11 7 5 7 4 6 9 4 8 6 10 18 18 6 1 5 10 12 11 10 10 9 8 7 10
10 10 10 10 10 11 11 12 13 14 16 16 16 16 17 18 18 19 18 18 17 15 13 11 9 5 2 2 7 14 20 20 19 17 16 15 11 9 10 12 12 12 13 10 7 10 13 12 10 6 3 4 3 2 1 2 1 3 2 1 8 7 10 8 2 2 4 5 6 6 3 6 10 17 19 12 6 4 6 10 12 10 9 10 9 7 8 10
10 9 9 10 11 11 11 12 13 15 17 17 16 17 18 19 19 19 19 18 17 14 11 8 4 4 3 6 8 8 14 18 20 20 19 16 12 8 8 9 10 10 11 10 7 5 10 12 8 3 1 3 3 2 2 5 3 3 2 1 2 2 8 7 2 3 1 4 7 6 5 8 10 18 20 7 4 6 7 10 11 9 9 9 9 8 9 10
9 9 9 10 11 11 12 13 15 16 16 16 17 18 19 19 19 19 18 16 14 10 7 3 4 5 2 8 10 7 10 13 16 20 20 18 13 8 7 9 9 10 9 8 7 6 9 10 6 3 2 1 1 1 3 4 3 2 2 4 2 3 6 11 7 6 7 5 4 6 5 8 10 16 19 5 4 6 7 10 11 11 10 10 10 8 10 11
10 10 10 10 10 11 12 14 16 17 16 17 19 19 18 17 16 15 14 11 8 6 3 3 7 6 1 6 6 6 9 10 12 14 15 17 15 9 9 10 8 9 8 6 7 7 8 7 3 2 1 2 2 3 2 4 4 3 2 5 5 5 4 8 11 6 10 4 2 7 6 7 7 11 14 8 3 6 6 11 12 13 12 11 11 8 11 13
10 10 10 10 11 12 13 15 17 17 17 19 20 19 14 12 11 10 7 1 3 5 5 4 7 4 2 5 5 6 6 8 9 8 10 14 14 12 12 8 5 8 7 4 6 6 3 2 1 1 2 1 2 5 2 2 5 3 2 4 5 7 5 4 9 7 5 6 5 7 8 11 11 9 11 13 11 7 7 13 15 14 13 13 11 10 13 14
10 10 10 11 12 13 14 16 18 18 18 19 20 17 8 6 7 6 5 9 10 7 4 2 5 2 5 7 7 5 1 3 5 4 7 10 11 13 12 7 6 9 8 4 2 3 1 2 2 0 2 1 2 5 4 6 8 7 6 5 4 5 6 6 8 6 2 3 4 5 9 14 15 13 12 14 16 14 14 15 15 15 14 15 12 12 15 15
11 11 11 12 12 13 14 16 18 19 19 20 19 11 3 4 5 6 7 7 6 3 1 2 4 2 4 7 7 4 1 2 3 3 7 10 12 12 9 7 7 8 5 1 2 3 1 3 3 2 2 6 8 9 11 14 12 10 7 5 6 6 7 8 11 9 4 5 6 9 14 15 15 15 14 16 14 15 18 17 15 14 13 14 13 13 15 16
10 10 11 12 12 14 15 16 18 19 19 20 18 9 2 4 4 2 3 1 4 4 2 5 7 4 5 5 2 1 1 3 3 4 9 12 14 11 5 4 6 4 3 4 3 2 3 4 4 6 11 15 14 12 15 14 6 4 4 6 8 8 10 9 12 10 1 3 8 11 17 17 14 15 15 16 13 12 18 20 18 15 13 13 14 16 16 16
9 10 10 11 12 14 14 16 18 17 17 17 15 7 2 1 1 3 5 5 9 10 8 10 10 9 12 9 4 2 1 1 1 4 10 12 14 11 1 2 5 2 3 4 3 1 2 6 8 13 16 12 8 10 12 9 5 5 5 7 7 7 12 10 12 13 1 1 7 8 17 18 12 15 15 14 14 14 17 20 22 20 16 13 14 19 18 14
10 9 10 11 12 13 13 16 17 16 14 13 12 6 3 1 2 3 2 4 10 10 10 12 9 10 16 20 15 4 1 3 3 2 10 10 8 7 3 4 6 4 2 4 2 1 3 6 12 17 10 1 2 5 6 7 7 8 5 6 7 5 9 10 9 11 2 1 6 7 15 15 11 16 17 17 18 16 15 15 20 22 17 16 17 16 14 12
11 10 10 10 11 12 12 15 15 13 13 10 8 5 1 1 2 2 1 2 8 5 6 8 8 8 12 18 16 8 5 8 6 5 11 11 4 4 5 6 6 3 4 6 7 6 5 7 13 15 5 1 2 4 6 4 5 7 6 6 7 3 5 7 5 6 4 3 6 10 15 14 11 15 16 19 18 14 13 14 19 19 16 19 20 13 9 11
12 13 12 11 13 12 12 15 11 10 12 7 6 5 3 2 2 2 0 2 5 5 6 8 6 6 8 8 6 9 6 6 4 5 13 14 5 3 5 6 6 3 6 11 12 11 9 7 7 7 6 7 7 2 5 4 5 8 8 6 9 9 10 9 5 7 7 5 4 7 13 12 7 9 11 10 8 9 12 14 15 17 19 19 15 12 9 11
14 13 13 13 14 12 13 13 6 8 11 4 4 7 5 2 1 1 2 2 4 6 6 4 2 4 6 2 4 8 3 3 4 5 12 14 7 4 2 3 4 5 9 10 10 10 10 5 3 4 5 7 7 7 6 6 8 8 6 11 16 15 11 11 8 7 6 5 4 6 9 10 2 5 7 5 3 7 8 9 15 19 20 14 8 11 10 9
15 14 14 13 12 12 12 7 3 9 10 2 4 9 7 3 2 1 1 2 5 4 2 2 2 1 3 2 3 5 2 3 4 1 7 8 6 5 2 1 1 4 7 6 4 4 5 4 4 6 6 7 6 6 7 9 8 8 5 12 16 12 9 10 8 4 1 4 3 4 1 10 5 3 9 8 5 9 7 9 17 18 14 8 6 9 9 8
14 15 14 13 12 11 8 3 5 9 5 2 5 9 7 4 3 3 1 3 6 2 2 2 1 2 2 1 1 4 3 4 3 3 2 1 2 2 2 4 2 2 3 2 2 3 3 2 2 5 5 6 5 6 7 10 5 7 5 8 9 8 8 7 4 4 4 3 3 2 5 6 11 5 5 5 5 8 11 12 16 14 9 8 8 10 10 9
16 16 15 12 11 10 9 7 6 5 3 4 6 7 7 4 3 2 3 3 5 1 2 2 0 1 1 1 3 4 2 2 3 2 2 2 1 2 0 6 6 4 3 4 4 4 4 4 5 6 5 4 7 6 6 11 7 7 3 5 6 6 6 5 5 5 2 3 3 3 5 3 12 6 2 2 4 7 13 14 16 13 8 8 9 10 11 8
17 17 16 13 10 9 10 9 6 5 6 5 4 6 5 4 3 4 3 3 3 2 1 0 1 1 3 2 2 3 1 2 2 3 3 1 1 3 1 5 6 5 4 5 7 5 1 4 6 8 5 6 8 4 7 12 8 4 5 5 4 3 3 4 3 3 3 3 5 6 6 3 11 6 4 3 2 7 11 12 12 9 6 7 8 9 10 8
16 16 15 12 8 8 8 10 11 9 8 5 3 5 4 3 1 2 3 5 1 1 1 1 0 1 3 4 3 3 1 2 1 2 3 1 2 4 1 3 5 3 3 3 6 7 2 0 3 5 4 6 5 2 4 8 5 3 5 4 5 4 4 4 1 3 2 6 6 10 12 7 7 5 4 3 4 6 7 7 8 8 7 8 6 7 7 6
13 13 14 11 9 9 5 5 10 10 10 7 2 3 3 2 1 3 7 2 1 2 1 1 2 1 4 3 2 2 0 2 1 2 1 1 2 4 1 1 3 3 3 4 5 6 2 0 2 3 2 4 5 3 1 1 3 3 3 3 3 4 4 4 4 3 1 8 5 11 13 10 9 6 2 4 5 4 6 6 7 8 8 8 5 6 6 4
9 10 10 10 11 11 8 5 5 6 11 8 3 2 2 1 2 6 5 2 1 2 1 0 1 2 3 1 1 2 1 2 0 3 2 2 2 2 3 4 3 1 4 3 3 5 2 5 4 2 2 5 5 2 3 4 3 3 3 3 1 4 3 2 3 0 4 7 4 7 8 7 10 7 5 9 10 8 8 7 8 8 8 8 6 6 6 5
8 9 9 8 10 12 13 12 7 4 9 9 5 4 3 1 5 4 1 2 2 1 2 1 1 2 2 1 2 2 1 2 2 2 1 2 1 3 4 4 5 2 4 2 2 4 4 5 2 1 3 4 8 6 3 2 4 6 5 5 4 2 2 3 4 2 5 6 3 3 4 4 7 5 9 14 13 11 7 8 9 8 8 8 6 7 7 6
9 9 9 8 9 12 14 15 11 7 10 8 3 3 3 6 6 1 1 5 3 3 2 1 2 1 1 2 3 2 1 2 2 3 1 2 1 3 4 4 4 2 1 1 2 1 4 7 4 6 3 5 11 10 6 4 5 6 5 5 4 4 4 4 4 5 6 4 2 1 3 4 3 2 7 11 8 6 4 5 5 5 6 6 6 7 7 6
10 10 10 10 10 11 13 15 13 10 12 7 2 2 5 8 5 1 3 4 2 4 4 1 2 1 2 3 3 2 3 3 1 4 2 2 2 3 3 4 5 4 2 1 2 2 3 8 7 4 1 7 10 6 4 6 2 3 3 3 3 4 5 3 4 5 3 2 2 3 4 5 4 5 7 7 6 7 6 4 5 5 6 4 5 7 6 5
12 12 12 11 13 13 13 15 15 14 12 5 1 5 7 6 3 3 3 2 2 2 3 4 1 1 4 3 2 3 1 2 1 1 2 3 3 4 4 4 6 8 6 4 2 2 3 7 4 1 1 6 7 2 2 3 3 2 3 3 5 3 5 2 5 3 1 4 6 5 7 6 5 8 5 1 3 5 5 5 4 7 7 4 6 6 4 5
10 10 10 11 15 16 13 14 18 16 9 3 4 7 5 3 4 4 3 1 1 2 1 4 3 3 4 3 2 2 0 1 1 1 2 2 3 4 5 4 4 10 11 6 3 4 4 7 4 4 4 4 2 2 1 0 3 5 3 5 2 2 3 2 2 2 2 8 7 7 13 9 6 8 4 6 7 6 5 5 4 6 5 5 7 5 4 6
9 8 8 11 17 18 14 15 19 15 5 2 8 10 4 3 5 4 4 3 1 1 1 4 4 2 3 4 4 2 2 2 1 2 2 2 3 4 5 4 4 9 10 4 1 3 1 6 6 4 4 3 2 2 2 3 1 4 3 2 2 2 3 1 2 2 5 9 6 7 13 10 7 10 7 9 11 8 6 5 6 6 5 5 6 6 6 7
5 4 4 6 9 15 18 19 18 10 2 3 9 9 4 4 5 4 5 4 2 1 3 5 4 3 3 4 3 2 3 4 2 2 3 3 4 4 5 3 2 3 4 5 4 2 1 3 5 2 2 1 3 1 3 3 1 2 2 2 1 2 3 2 2 2 3 7 7 7 9 8 8 10 10 11 9 6 7 6 5 7 6 5 5 6 7 7
1 1 3 3 1 11 19 19 12 5 3 6 8 7 3 3 3 3 5 5 3 3 4 5 4 5 6 5 4 4 3 4 4 3 4 3 4 4 3 2 2 1 1 3 4 1 2 2 5 3 1 1 2 4 6 6 4 2 1 3 3 2 1 2 2 1 3 6 6 7 7 7 7 10 14 12 5 6 7 5 6 7 6 6 7 6 7 9
0 1 3 4 2 15 20 12 5 3 5 5 8 9 5 4 4 4 4 4 4 3 3 4 5 6 7 6 5 4 2 3 5 5 4 4 5 4 3 3 4 3 3 3 2 3 1 3 5 6 6 5 7 7 7 9 7 5 5 6 6 6 3 5 6 4 3 5 6 8 9 8 5 8 12 9 2 5 4 3 5 8 8 9 9 9 12 14
1 3 2 5 8 21 15 4 4 3 4 5 5 5 4 3 4 4 3 3 4 3 2 4 6 6 6 7 7 5 3 4 5 5 5 6 8 8 5 3 2 3 2 1 3 4 1 1 3 7 8 9 10 6 5 7 6 3 4 5 5 6 6 8 10 5 5 8 8 10 12 7 3 5 9 8 5 3 2 4 4 7 9 12 15 15 15 13
1 3 5 6 13 22 9 3 5 3 4 4 3 4 3 2 3 4 3 3 4 4 3 3 5 7 7 7 7 6 5 5 8 9 8 6 7 7 4 4 3 1 1 3 3 1 2 2 2 6 6 8 10 4 2 3 4 2 3 4 5 6 7 8 7 3 4 8 8 9 10 5 1 4 6 8 9 9 5 3 6 9 10 13 14 14 13 12
2 3 4 5 10 13 4 4 6 4 6 6 6 8 6 3 5 6 5 4 3 3 4 4 4 5 5 5 6 7 7 5 7 9 7 4 5 3 8 8 4 2 1 2 2 2 0 1 2 4 4 5 8 4 2 3 1 2 4 4 5 6 7 6 4 2 4 7 10 11 10 5 2 5 6 8 10 10 10 12 13 11 9 9 10 10 11 11
3 2 2 5 8 6 3 3 3 4 7 8 10 11 9 6 5 7 8 6 4 3 3 4 2 1 2 3 4 4 5 4 3 4 2 2 3 3 8 8 6 4 2 3 3 1 2 2 3 4 7 7 8 8 3 1 2 2 2 4 4 6 8 7 6 7 8 9 11 11 10 8 5 6 7 8 10 11 12 12 11 9 9 9 8 9 9 10
1 1 1 3 3 3 3 3 2 3 4 6 8 8 10 10 5 4 6 7 7 7 5 4 2 1 2 3 5 6 6 6 5 4 3 3 2 1 4 5 7 5 3 7 8 3 1 2 5 8 10 10 11 11 7 4 3 4 6 7 7 7 8 7 6 8 9 9 11 12 11 12 12 8 7 9 11 11 11 11 10 9 9 8 7 8 9 9
0 1 1 1 2 2 4 3 2 2 2 2 2 2 6 9 5 2 4 4 5 5 4 4 5 6 6 6 7 8 8 8 8 7 6 4 2 3 3 3 6 7 5 5 6 2 1 3 5 9 12 11 12 14 12 11 10 10 10 11 11 12 11 11 11 12 10 9 9 9 10 15 14 6 7 10 10 9 9 10 9 8 6 6 6 7 9 10
0 1 1 1 1 2 2 2 3 4 4 3 2 3 7 10 8 5 3 3 2 1 2 3 4 6 7 8 8 5 5 8 7 3 1 1 2 4 4 2 2 6 7 4 3 2 1 4 5 8 10 8 8 10 10 11 11 10 10 11 11 12 14 15 16 15 12 12 11 10 14 17 11 3 5 6 7 7 8 8 7 7 7 7 7 8 9 9
0 1 2 2 1 2 3 3 4 4 4 5 3 3 8 11 11 8 4 3 3 2 4 5 1 2 4 6 5 3 4 6 4 2 2 1 1 1 3 3 1 5 7 6 4 0 2 3 3 5 7 7 7 8 9 10 11 10 10 10 10 12 16 17 16 13 13 16 17 16 18 15 3 4 3 2 2 4 5 5 4 6 8 8 8 8 8 7
0 0 2 2 1 1 2 2 3 3 3 4 4 4 6 9 9 5 2 3 5 3 2 2 1 3 4 4 4 4 4 4 3 1 2 2 1 1 0 2 1 4 6 4 2 3 2 3 5 6 6 7 9 9 10 10 10 12 13 13 14 17 18 17 15 13 16 18 17 16 16 9 3 4 1 1 1 3 4 4 4 5 6 7 8 8 8 7
1 0 1 1 2 2 0 1 1 2 2 3 4 3 5 5 5 5 3 2 2 2 3 4 4 4 2 1 3 3 3 5 4 3 3 1 1 1 1 2 1 5 5 2 1 2 2 3 5 7 6 8 10 12 14 13 12 14 15 17 21 21 18 16 15 14 13 13 13 15 11 4 1 1 1 2 4 5 4 5 5 3 4 6 7 7 7 7
1 2 0 2 2 2 1 1 1 3 3 2 1 2 1 0 4 4 3 2 6 6 6 5 4 4 2 3 2 1 0 1 2 3 2 3 5 4 4 5 5 4 3 2 2 1 2 3 4 6 7 8 12 14 12 10 11 12 12 14 18 18 17 17 13 7 5 4 6 8 4 1 1 3 2 4 5 6 5 5 5 3 3 4 5 5 6 7
Wind_Direction
1 3 1 1 359 359 359 0 2 1 2 359 358 356 354 354 350 349 346 345 345 343 345 344 346 348 349 350 340 329 321 306 290 270 251 268 281 266 255 261 260 213 203 199 185 171 143 124 137 122 113 79 14 5 28 11 94 68 88 127 238 202 202 193 191 202 194 262 270 297 47 239 291 294 281 6 4 279 284 278 266 274 258 238 244 275 287 178
359 360 357 355 352 353 352 354 356 354 356 352 353 351 348 349 345 345 342 341 340 339 342 342 345 344 347 353 347 339 329 315 297 267 254 276 292 267 252 243 240 217 200 196 197 177 147 175 162 104 72 58 350 7 6 327 112 108 118 161 234 204 213 199 189 202 204 240 266 286 291 236 257 270 7 285 282 304 297 280 273 277 270 261 251 235 212 181
353 354 351 348 345 345 343 345 347 346 348 345 345 344 342 341 339 339 337 337 337 336 339 339 342 342 346 350 349 347 333 325 316 272 218 47 348 294 250 230 227 215 200 202 208 193 179 185 158 109 56 44 334 15 28 3 179 165 131 204 244 217 231 233 208 212 221 243 292 290 291 236 246 244 123 250 282 290 260 261 263 263 261 259 241 192 191 186
346 346 343 340 337 335 335 336 337 337 338 337 336 336 335 333 332 330 330 332 331 331 332 335 338 337 343 348 353 348 339 348 312 217 149 355 344 339 247 213 208 206 201 199 193 195 183 145 136 92 74 78 322 7 167 229 207 175 150 206 235 196 230 242 217 223 236 233 249 278 326 291 263 188 201 224 295 283 248 239 240 246 251 251 241 193 189 189
338 338 337 334 332 329 329 329 328 329 328 330 329 327 327 325 323 321 321 322 323 324 324 327 329 333 341 346 353 350 1 17 269 198 233 324 336 343 227 197 198 198 195 193 162 152 134 123 102 58 80 150 324 38 240 223 138 169 211 228 228 164 231 247 212 223 223 183 224 271 300 285 281 176 207 186 228 262 252 229 221 236 244 245 238 200 189 196
333 334 334 329 329 325 324 324 323 323 322 323 321 320 320 316 315 312 311 310 312 313 313 316 318 324 333 341 347 353 33 317 260 249 301 316 328 330 180 187 191 189 193 190 160 145 124 101 82 91 97 49 198 195 245 226 133 232 250 250 240 194 230 253 207 210 183 183 247 250 280 297 301 282 217 175 218 252 257 235 217 234 240 241 227 178 190 206
333 333 332 328 326 322 321 320 318 318 318 318 316 316 314 312 311 306 304 301 300 301 302 303 306 310 317 327 331 359 88 241 269 283 295 305 309 304 178 186 186 190 196 182 156 146 115 105 145 153 113 341 216 212 236 210 130 240 257 256 248 213 229 251 252 252 226 244 252 261 322 292 270 279 220 181 224 253 260 246 227 249 247 235 218 194 209 212
334 333 330 328 327 324 321 318 317 317 315 315 314 314 313 312 309 305 302 296 295 295 292 292 294 300 306 309 307 353 68 254 274 281 283 288 285 251 190 185 185 195 196 192 175 154 131 141 182 160 132 240 199 189 203 133 136 222 236 246 249 226 240 259 271 269 263 257 253 277 290 268 257 271 275 239 241 256 263 263 245 254 258 238 233 226 222 221
335 334 332 331 329 325 323 321 320 318 317 318 316 318 316 314 310 306 302 296 295 293 291 288 287 289 293 304 99 325 265 264 275 271 269 272 265 225 202 194 193 198 193 200 190 165 164 179 204 192 193 215 174 188 183 178 244 219 223 251 267 266 267 275 275 252 250 251 210 220 261 266 269 282 271 246 240 255 263 273 264 247 257 244 238 235 223 226
333 333 333 332 331 328 327 326 324 322 322 321 320 321 318 316 311 307 302 297 296 295 295 290 286 281 270 219 109 265 265 269 261 251 265 266 250 220 210 210 203 201 191 192 189 176 179 194 195 173 174 170 168 196 158 172 218 200 216 269 257 265 278 252 252 249 238 248 197 194 251 266 291 17 271 242 223 253 271 274 275 236 252 248 239 239 228 228
331 333 332 332 334 333 333 331 330 329 326 324 323 321 318 315 311 306 301 295 294 297 298 294 292 280 252 168 179 248 266 262 248 252 265 261 247 231 228 227 213 203 191 180 196 197 198 197 163 124 174 190 166 191 214 203 200 203 241 299 277 288 294 242 238 251 213 249 203 186 248 277 312 169 250 258 243 216 276 278 284 262 257 256 246 241 233 231
330 331 330 332 336 337 338 335 333 332 328 327 324 321 318 315 311 304 297 291 291 294 294 296 294 272 244 184 222 247 258 257 257 261 260 255 245 234 233 230 221 212 201 188 206 208 209 202 154 150 218 179 149 223 234 219 151 302 61 317 292 331 309 264 249 242 182 213 187 162 260 287 268 239 245 260 266 165 261 275 280 272 269 265 255 243 238 240
326 329 331 336 341 343 342 338 337 335 332 330 325 321 316 313 309 300 293 288 286 288 289 292 287 249 205 256 242 249 256 255 257 260 256 248 239 230 224 220 219 217 213 209 214 207 208 204 170 179 205 154 232 225 137 51 59 299 64 297 297 341 308 266 189 105 159 192 166 148 274 258 248 260 260 260 260 262 263 267 270 272 276 273 266 252 247 247
321 328 335 340 343 345 345 344 342 339 337 335 329 323 316 311 303 293 289 285 282 282 283 287 266 185 161 260 263 262 258 253 251 249 247 239 223 212 211 204 204 203 209 213 202 178 193 198 169 145 205 166 243 273 6 1 13 307 299 243 315 321 286 281 151 116 234 227 158 154 260 249 248 268 273 268 212 232 249 264 270 269 271 274 271 263 260 254
320 328 334 338 340 343 347 348 347 344 342 340 334 327 319 309 300 294 290 281 276 271 265 252 186 146 87 275 271 276 261 251 248 245 246 237 214 194 189 185 188 189 193 196 183 161 165 170 146 134 252 260 62 357 317 337 6 7 282 284 305 204 270 302 288 190 217 265 143 163 239 260 253 262 273 289 139 190 235 259 266 268 267 269 273 270 268 266
320 326 330 335 339 343 346 348 349 348 346 345 339 332 323 311 306 304 294 280 267 243 208 190 172 145 17 276 281 288 256 241 246 249 244 233 220 200 168 161 161 165 173 176 169 161 144 133 120 154 221 286 146 121 23 354 328 337 213 253 263 241 271 312 298 234 195 208 196 205 234 268 262 258 275 293 219 188 225 264 268 269 270 266 270 272 270 274
319 323 327 332 337 341 344 347 350 349 349 350 344 337 329 319 323 326 313 266 159 150 132 155 160 142 265 265 289 283 249 231 239 248 231 219 215 192 158 137 131 140 135 127 144 143 120 103 61 2 49 5 132 111 57 297 277 290 217 234 246 249 258 292 297 293 164 169 218 233 238 254 262 269 287 295 283 259 252 268 271 270 273 270 267 266 265 265
316 319 324 329 334 339 343 347 350 350 350 353 348 340 338 342 358 25 86 116 112 106 87 95 129 128 264 253 264 265 245 218 221 222 208 193 187 180 158 131 128 125 103 65 129 144 352 25 89 353 355 355 134 133 190 230 228 237 232 242 262 249 248 253 268 286 306 223 231 253 252 255 267 275 280 281 281 283 274 268 270 270 269 269 266 259 259 262
313 318 323 328 333 338 343 348 351 351 351 356 355 345 347 7 28 78 95 106 108 114 161 216 162 157 256 249 258 270 32 145 167 165 165 157 161 163 136 115 111 108 110 78 250 187 139 56 87 151 226 235 215 178 203 223 221 228 232 242 265 266 251 244 252 259 286 290 263 257 262 261 267 271 272 272 273 279 280 276 272 267 263 265 264 257 256 259
310 316 321 327 333 338 345 348 351 354 355 359 0 356 23 11 15 34 3 330 223 213 221 226 211 237 276 277 269 236 202 169 164 153 154 154 152 138 96 82 78 75 145 161 200 199 137 164 180 191 214 227 220 194 211 231 240 253 248 251 256 264 265 258 266 269 76 300 257 248 265 266 264 268 267 269 271 272 277 279 276 269 263 261 262 263 260 255
308 313 320 326 330 336 343 346 350 357 0 5 9 19 103 67 13 315 313 286 258 246 252 243 225 249 264 266 253 160 96 240 179 147 160 161 149 141 131 120 119 177 201 147 153 48 136 191 211 213 218 224 208 197 219 240 273 265 245 263 263 253 266 267 273 279 336 278 253 240 267 269 263 267 265 265 265 257 257 267 275 274 269 265 262 263 264 265
299 303 315 321 327 333 339 344 348 357 3 15 32 61 140 194 228 259 263 291 280 249 244 251 243 257 257 258 255 213 52 278 271 193 165 154 150 175 198 136 160 199 160 121 138 245 212 219 229 225 224 28 98 164 200 225 240 250 247 272 270 257 279 275 265 284 318 231 272 274 274 272 260 259 257 253 252 249 246 249 264 270 272 272 264 261 272 286
298 303 310 310 318 324 333 341 342 357 9 24 45 67 104 305 223 224 163 261 288 261 229 241 233 236 245 257 250 200 215 240 246 241 176 152 157 194 160 153 178 164 143 183 201 207 218 237 236 232 230 298 272 110 127 206 239 234 227 254 268 262 279 268 261 313 329 237 276 293 285 278 256 250 250 249 249 253 254 244 253 264 264 262 263 270 286 284
307 311 315 312 315 315 325 334 335 360 10 28 46 31 10 333 203 185 308 257 280 273 242 228 214 214 228 258 226 180 213 220 214 236 178 157 143 159 164 163 159 156 194 207 212 221 234 245 232 218 199 209 241 198 152 221 258 229 213 224 255 252 247 253 279 336 323 284 302 313 298 284 234 225 244 254 254 252 253 248 254 263 257 254 267 279 269 259
295 299 306 310 315 317 322 325 333 3 359 18 35 5 4 347 219 164 359 314 281 285 278 239 196 224 221 194 155 174 194 218 226 221 177 167 151 138 187 163 149 201 213 212 223 242 250 247 148 151 187 190 214 236 201 206 250 257 214 210 236 249 251 260 288 343 343 307 341 13 320 295 180 165 244 275 271 243 244 243 246 251 253 255 271 273 265 258
283 283 289 294 302 316 324 324 335 352 350 359 7 355 350 328 276 261 36 350 283 275 301 230 175 203 200 132 154 165 139 269 275 174 168 179 165 135 151 169 164 215 204 201 226 249 254 241 179 177 188 171 186 245 220 193 240 280 232 210 228 243 252 258 275 322 299 259 292 69 348 287 290 176 236 245 237 251 247 234 241 246 257 274 273 268 275 277
275 275 284 287 289 300 311 307 315 335 343 323 348 351 340 323 290 282 11 345 292 228 132 271 343 91 172 199 162 144 185 274 346 47 113 176 224 105 143 198 196 220 174 141 276 242 210 217 201 187 169 153 181 247 219 174 204 270 233 199 207 219 232 230 218 222 235 276 302 132 136 277 288 266 228 210 190 256 261 249 254 256 266 282 275 275 277 275
265 267 275 281 285 286 280 278 295 314 291 294 340 345 336 323 290 342 50 306 285 124 108 277 29 83 342 12 64 103 206 289 47 318 325 40 255 56 239 219 185 198 171 148 241 246 163 191 196 164 140 168 205 227 179 154 192 253 200 156 175 194 205 169 163 200 243 345 303 205 137 245 277 279 61 98 166 236 255 251 257 263 274 279 274 280 283 290
264 265 268 273 282 279 271 266 258 263 274 284 335 334 330 307 296 60 84 252 272 76 77 236 131 330 355 45 35 47 355 354 84 280 330 59 216 77 184 215 162 195 225 182 232 259 175 214 188 151 148 206 215 210 165 164 201 230 117 96 74 71 82 107 143 144 84 312 248 196 162 218 277 277 90 78 181 225 245 249 260 278 288 272 269 282 291 313
267 267 268 267 266 258 254 257 253 252 260 258 291 325 339 303 324 92 223 244 347 5 223 107 189 304 59 77 335 340 353 304 2 353 6 69 347 32 138 197 116 147 267 279 258 256 261 2 155 160 181 197 173 130 175 174 178 139 102 56 28 25 36 55 49 90 78 280 234 185 182 187 275 282 139 167 214 212 233 257 283 301 289 267 268 278 285 308
271 270 268 262 254 245 228 256 264 245 232 232 259 359 15 2 91 187 234 236 50 286 190 77 327 29 85 106 278 313 16 283 336 85 56 88 30 31 60 232 79 69 325 306 283 273 268 147 213 229 187 139 120 108 336 79 112 126 102 60 4 327 13 29 351 48 166 266 238 183 182 185 232 257 208 246 257 220 214 238 266 282 281 273 270 269 276 297
280 278 272 264 256 246 233 249 277 230 213 204 138 67 45 13 235 223 251 5 3 275 112 120 318 72 85 83 248 245 170 264 254 124 147 128 138 180 198 201 171 341 308 247 275 312 277 219 226 267 211 152 137 153 340 16 96 129 124 121 311 308 342 347 313 54 211 263 262 181 175 208 242 254 262 266 270 251 220 218 239 248 257 267 279 287 298 312
286 284 279 271 258 248 242 245 254 215 193 176 131 72 83 213 250 226 252 312 262 307 60 105 56 104 129 344 281 233 161 225 188 139 148 118 148 248 258 227 175 215 270 221 318 328 291 268 198 156 256 184 153 176 237 252 171 158 154 160 173 207 263 266 263 266 256 270 284 183 176 255 278 273 241 239 253 260 232 219 232 232 242 265 287 296 301 308
290 286 279 274 258 249 246 243 240 204 168 155 121 76 136 229 253 126 193 246 263 334 357 103 63 48 171 230 247 200 202 261 149 123 105 83 48 273 267 250 196 173 235 245 311 234 263 288 207 175 234 181 178 199 196 145 153 180 161 143 171 184 200 231 233 251 267 282 314 223 190 223 249 258 232 228 252 289 266 240 256 255 255 277 297 296 299 303
294 287 282 273 256 245 238 233 229 198 163 141 107 169 208 238 255 209 222 237 274 309 311 348 77 10 281 255 261 226 211 251 111 117 161 160 194 220 209 222 199 159 131 212 264 166 227 270 244 215 184 163 185 218 157 113 134 214 126 113 227 204 183 242 256 236 249 311 288 233 222 228 228 254 255 251 271 285 278 300 338 304 286 312 301 282 285 292
294 289 283 269 254 245 231 222 215 192 167 140 169 218 228 233 203 194 215 205 208 220 312 325 105 199 275 262 292 302 205 219 222 138 200 192 206 212 207 228 196 173 173 189 222 201 240 269 264 343 310 187 189 203 128 147 198 170 120 192 231 171 152 239 283 263 228 266 260 247 255 276 295 282 278 358 331 318 317 318 297 269 286 306 273 265 292 306
304 297 278 258 253 246 232 221 205 183 163 146 221 228 232 216 189 192 197 182 203 126 69 293 238 201 250 258 282 293 229 240 227 179 227 231 232 193 194 251 207 188 202 210 231 233 247 275 251 172 221 240 167 113 47 23 148 138 175 221 212 111 131 150 269 290 258 254 260 261 265 279 295 278 312 17 341 341 344 320 297 285 289 272 261 277 304 294
318 311 278 262 254 241 227 212 191 171 139 172 232 238 227 205 208 188 168 166 195 81 138 243 246 224 234 249 263 229 184 220 176 158 210 230 241 174 166 239 215 200 216 197 218 260 252 277 268 161 186 268 51 86 307 313 137 147 217 236 112 198 240 155 192 237 247 253 254 254 266 274 259 259 286 304 297 305 310 308 319 298 262 256 282 307 307 294
316 320 284 276 253 229 211 192 174 157 130 201 230 241 215 210 223 192 183 181 168 189 229 235 241 267 264 236 233 233 211 202 166 188 212 214 239 195 168 221 213 219 228 154 169 271 30 261 272 65 93 335 24 115 201 241 304 45 336 321 66 181 216 193 189 193 235 254 255 250 259 263 256 261 269 269 268 282 290 295 299 276 258 270 286 295 308 318
299 356 271 335 354 199 186 171 158 159 203 209 229 236 217 233 248 233 221 209 198 220 238 236 221 243 260 242 229 251 246 215 202 225 226 227 252 232 198 206 148 87 331 133 168 239 51 233 255 290 319 280 241 212 188 194 204 142 184 256 241 209 229 263 242 188 236 254 256 252 249 247 258 265 267 266 234 216 255 281 291 285 277 275 271 283 325 352
355 114 259 339 91 167 163 157 166 197 206 224 239 239 243 251 249 269 253 209 216 249 255 231 217 234 254 253 247 238 229 232 221 223 233 235 248 252 231 200 173 145 71 71 174 203 204 223 238 253 254 244 238 221 193 193 189 180 193 206 220 226 241 270 255 209 209 240 241 253 258 248 242 259 274 286 218 199 246 281 291 298 303 307 322 355 12 20
272 177 310 357 163 165 157 172 210 193 213 229 238 240 249 253 244 259 257 205 207 243 283 242 226 235 244 249 251 229 216 241 222 221 239 226 225 234 235 226 176 134 124 212 231 223 190 128 222 247 253 265 265 239 190 191 169 167 215 201 213 220 210 241 254 241 228 234 232 250 261 254 221 256 285 308 316 289 237 195 261 315 342 360 7 15 21 23
238 230 330 354 175 172 165 230 210 203 234 242 282 264 243 258 256 248 235 212 203 217 245 240 233 241 235 235 243 230 225 228 218 229 243 236 233 246 284 325 359 48 269 272 278 302 63 88 247 259 263 280 281 270 103 96 107 135 238 204 198 219 222 235 250 258 248 237 236 255 261 259 345 317 316 328 325 319 317 16 33 23 25 28 20 14 13 11
319 273 308 315 208 193 196 219 211 227 230 240 263 252 245 247 242 249 248 223 201 218 237 241 251 256 242 237 244 237 232 228 231 240 241 244 259 327 14 9 23 58 299 276 276 285 253 169 232 280 277 282 287 287 19 27 77 196 244 230 219 244 265 275 280 286 260 235 236 255 260 250 322 337 329 321 315 322 347 25 48 51 39 29 20 14 10 6
336 282 257 285 259 241 249 230 227 235 229 240 248 247 255 251 223 236 247 241 226 225 250 266 276 297 279 277 287 273 240 219 244 269 253 249 267 18 25 19 41 57 36 16 352 297 238 224 218 254 258 257 270 268 255 215 181 202 277 267 254 249 251 265 272 260 256 241 233 250 265 266 285 314 316 321 335 348 3 26 49 52 37 29 21 15 10 8
347 294 272 292 274 245 258 280 276 227 225 244 243 235 241 248 245 219 222 238 239 226 238 261 254 261 261 251 262 269 252 218 212 244 253 259 266 21 22 34 52 43 29 28 14 7 222 263 241 243 253 255 264 271 284 307 278 270 285 282 283 276 259 260 260 252 262 266 252 254 267 272 277 295 334 2 8 3 0 9 26 35 34 28 18 12 10 9
164 257 226 293 291 247 255 289 303 269 282 290 268 245 243 253 279 268 211 236 248 233 243 249 234 234 235 237 248 255 254 240 226 234 249 252 275 320 344 76 67 36 31 23 4 20 136 285 260 254 259 260 269 281 295 303 291 281 283 282 280 279 272 264 259 260 270 274 265 267 279 280 281 305 14 15 3 357 359 0 8 19 22 23 19 13 11 8
186 273 281 282 278 256 262 309 335 324 323 322 316 302 275 266 270 271 262 292 321 327 261 257 251 249 253 265 265 249 246 249 236 224 266 358 352 331 346 25 70 47 42 9 344 64 183 264 260 267 277 281 290 299 301 297 292 290 289 286 282 279 274 266 264 269 274 272 276 287 285 284 294 7 51 25 355 345 348 344 348 4 10 16 18 12 14 10
3 290 304 325 290 285 311 326 338 336 312 296 288 265 265 265 266 266 265 288 300 267 234 240 276 5 343 326 302 260 251 262 249 167 131 82 14 350 346 328 9 52 33 1 335 321 224 266 284 291 299 304 298 294 294 292 293 294 290 288 288 281 273 271 274 280 277 271 276 282 279 280 321 66 57 43 356 304 314 324 345 6 4 6 10 9 9 4
49 214 316 2 334 271 325 321 310 320 298 271 253 248 259 266 279 295 295 262 267 264 245 241 46 35 20 14 355 308 302 328 339 16 97 89 59 88 351 269 299 4 0 350 314 301 287 303 325 329 310 293 288 285 284 285 287 291 292 291 284 277 272 274 277 275 271 270 272 274 272 274 67 72 340 320 305 307 329 336 345 4 0 358 2 359 354 351
159 27 22 27 298 253 177 6 288 264 265 239 227 259 265 260 296 328 326 332 5 63 67 46 13 1 10 30 6 335 349 26 21 2 28 36 265 300 288 244 313 340 333 299 274 319 311 294 316 319 295 284 290 289 286 291 293 287 283 278 273 271 270 268 265 264 268 273 278 278 273 273 51 5 287 297 329 348 346 326 325 332 339 348 352 347 342 339
193 296 147 127 281 268 179 348 285 235 248 243 252 325 291 169 16 352 300 50 77 91 79 53 1 349 351 317 342 71 95 337 284 260 240 210 230 239 228 234 249 257 266 277 275 250 249 271 293 291 285 285 283 283 292 306 297 279 269 264 263 264 267 266 265 285 305 277 271 276 268 151 274 284 314 320 331 342 324 309 310 288 288 323 328 322 323 324